Weather History for KMAN - June, 2013

Change the Weather History Date:

Saturday, June 15, 2013

  Actual Average (KBOI) Record (KBOI)
Temperature  
Mean Temperature 62 °F 67 °F  
Max Temperature 82 °F 81 °F 101 °F (1933)
Min Temperature 41 °F 54 °F 32 °F (1895)
Degree Days  
Heating Degree Days 4 2  
Month to date heating degree days 44  
Since 1 June heating degree days 44  
Since 1 July heating degree days 5494  
Cooling Degree Days 0 4  
Month to date cooling degree days 49  
Year to date cooling degree days 93  
Since 1 June cooling degree days 49  
Growing Degree Days 12 (Base 50)    
Moisture  
Dew Point 31 °F    
Average Humidity 36    
Maximum Humidity 71    
Minimum Humidity 13    
Precipitation  
Precipitation 0.00 in 0.02 in 0.96 in (1925)
Month to date precipitation 0.43  
Year to date precipitation 6.67  
Snow  
Snow 0.00 in 0.00 in 0.00 in (2007)
Month to date snowfall 0.0  
Since 1 July snowfall 19.2  
Snow Depth -    
Sea Level Pressure  
Sea Level Pressure 30.00 in    
Wind  
Wind Speed 3 mph (North)    
Max Wind Speed 12 mph    
Max Gust Speed -    
Visibility 10 miles    
Events      
T = Trace of Precipitation, MM = Missing Value Source: NWS Daily Summary

Daily Weather History Graph

Daily Weather History Graph

Search for Another Location

Airport or City:

Trip Planner

Search our weather history database for the weather conditions in past years. The results will help you decide how hot, cold, wet, or windy it might be!

Date:

Astronomy

Jun. 15, 2013 Rise Set
Actual Time 6:04 AM MDT 9:29 PM MDT
Civil Twilight 5:28 AM MDT 10:05 PM MDT
Nautical Twilight 4:41 AM MDT 10:52 PM MDT
Astronomical Twilight 3:42 AM MDT 11:51 PM MDT
Moon 12:54 PM MDT (6/15) 12:56 AM MDT (6/15)
Length of Visible Light 16h 36m
Length of Day
15h 25m
Waxing Crescent, 40% of the Moon is Illuminated
Jun 15
Waxing Crescent
Jun 16
First Quarter
Jun 23
Full
Jun 29
Last Quarter
Jul 8
New

Hourly Weather History & Observations

Time (MDT) Temp. Windchill Dew Point Humidity Pressure Visibility Wind Dir Wind Speed Gust Speed Precip Events Conditions
12:15 AM 51.8 °F - 35.6 °F 54% 30.07 in 10.0 mi Calm Calm - N/A   Clear
12:35 AM 50.0 °F - 35.6 °F 58% 30.07 in 10.0 mi Calm Calm - N/A   Clear
12:55 AM 51.8 °F - 35.6 °F 54% 30.07 in 10.0 mi Calm Calm - N/A   Clear
1:15 AM 48.2 °F - 37.4 °F 66% 30.06 in 10.0 mi Calm Calm - N/A   Clear
1:35 AM 46.4 °F - 35.6 °F 66% 30.06 in 10.0 mi Calm Calm - N/A   Clear
1:55 AM 44.6 °F - 35.6 °F 71% 30.05 in 10.0 mi Calm Calm - N/A   Clear
2:15 AM 48.2 °F - 35.6 °F 62% 30.05 in 10.0 mi ESE 3.5 mph - N/A   Clear
2:35 AM 44.6 °F 43.1 °F 35.6 °F 71% 30.05 in 10.0 mi ESE 3.5 mph - N/A   Clear
2:55 AM 44.6 °F - 33.8 °F 66% 30.05 in 10.0 mi Calm Calm - N/A   Clear
3:15 AM 44.6 °F - 33.8 °F 66% 30.04 in 10.0 mi Calm Calm - N/A   Clear
3:35 AM 44.6 °F - 32.0 °F 61% 30.04 in 10.0 mi Calm Calm - N/A   Clear
3:55 AM 41.0 °F - 32.0 °F 70% 30.05 in 10.0 mi Calm Calm - N/A   Clear
4:15 AM 41.0 °F 39.0 °F 32.0 °F 70% 30.05 in 10.0 mi SE 3.5 mph - N/A   Clear
4:35 AM 41.0 °F - 32.0 °F 70% 30.05 in 10.0 mi Calm Calm - N/A   Clear
4:55 AM 41.0 °F - 32.0 °F 70% 30.05 in 10.0 mi Calm Calm - N/A   Clear
5:15 AM 41.0 °F - 32.0 °F 70% 30.05 in 10.0 mi Calm Calm - N/A   Clear
5:35 AM 41.0 °F - 32.0 °F 70% 30.05 in 10.0 mi Calm Calm - N/A   Clear
5:55 AM 41.0 °F - 32.0 °F 70% 30.05 in 10.0 mi Calm Calm - N/A   Clear
6:15 AM 41.0 °F - 32.0 °F 70% 30.05 in 10.0 mi Calm Calm - N/A   Clear
6:35 AM 42.8 °F - 33.8 °F 70% 30.06 in 10.0 mi Calm Calm - N/A   Clear
6:55 AM 44.6 °F - 35.6 °F 71% 30.06 in 10.0 mi Calm Calm - N/A   Clear
7:15 AM 46.4 °F 45.2 °F 33.8 °F 62% 30.07 in 10.0 mi SSE 3.5 mph - N/A   Clear
7:35 AM 48.2 °F - 35.6 °F 62% 30.07 in 10.0 mi SE 3.5 mph - N/A   Clear
7:55 AM 51.8 °F - 35.6 °F 54% 30.07 in 10.0 mi North - - N/A   Clear
8:15 AM 53.6 °F - 35.6 °F 51% 30.07 in 10.0 mi ESE 5.8 mph - N/A   Clear
8:35 AM 57.2 °F - 35.6 °F 44% 30.07 in 10.0 mi SE 5.8 mph - N/A   Clear
8:55 AM 59.0 °F - 32.0 °F 36% 30.07 in 10.0 mi SSE 6.9 mph - N/A   Clear
9:15 AM 60.8 °F - 32.0 °F 34% 30.06 in 10.0 mi SSE 6.9 mph - N/A   Clear
9:35 AM 62.6 °F - 32.0 °F 32% 30.07 in 10.0 mi SSE 5.8 mph - N/A   Clear
9:55 AM 64.4 °F - 32.0 °F 30% 30.07 in 10.0 mi SE 4.6 mph - N/A   Clear
10:15 AM 66.2 °F - 30.2 °F 26% 30.06 in 10.0 mi SSE 5.8 mph - N/A   Clear
10:35 AM 68.0 °F - 28.4 °F 23% 30.05 in 10.0 mi SE 6.9 mph - N/A   Clear
10:55 AM 68.0 °F - 28.4 °F 23% 30.05 in 10.0 mi South 8.1 mph - N/A   Clear
11:15 AM 69.8 °F - 28.4 °F 21% 30.04 in 10.0 mi South 6.9 mph - N/A   Clear
11:35 AM 71.6 °F - 28.4 °F 20% 30.04 in 10.0 mi South 6.9 mph - N/A   Clear
11:55 AM 73.4 °F - 28.4 °F 19% 30.04 in 10.0 mi SSE 4.6 mph - N/A   Clear
12:15 PM 73.4 °F - 28.4 °F 19% 30.03 in 10.0 mi Calm Calm - N/A   Clear
12:35 PM 75.2 °F - 28.4 °F 18% 30.02 in 10.0 mi East 5.8 mph - N/A   Clear
12:55 PM 75.2 °F - 26.6 °F 17% 30.02 in 10.0 mi East 4.6 mph - N/A   Clear
1:15 PM 75.2 °F - 26.6 °F 17% 30.02 in 10.0 mi SE 4.6 mph - N/A   Clear
1:35 PM 75.2 °F - 24.8 °F 15% 30.01 in 10.0 mi North - - N/A   Clear
1:55 PM 77.0 °F - 26.6 °F 16% 30.00 in 10.0 mi SSW 5.8 mph - N/A   Clear
2:15 PM 77.0 °F - 26.6 °F 16% 29.99 in 10.0 mi SW 6.9 mph - N/A   Clear
2:35 PM 77.0 °F - 24.8 °F 14% 29.99 in 10.0 mi WNW 3.5 mph - N/A   Clear
2:55 PM 77.0 °F - 24.8 °F 14% 29.98 in 10.0 mi Calm Calm - N/A   Clear
3:15 PM 80.6 °F - 26.6 °F 14% 29.97 in 10.0 mi NNE 4.6 mph - N/A   Clear
3:35 PM 78.8 °F - 24.8 °F 14% 29.96 in 10.0 mi WNW 5.8 mph - N/A   Clear
3:55 PM 80.6 °F - 26.6 °F 14% 29.95 in 10.0 mi North 3.5 mph - N/A   Clear
4:15 PM 80.6 °F - 28.4 °F 15% 29.95 in 10.0 mi North 5.8 mph - N/A   Clear
4:35 PM 80.6 °F - 28.4 °F 15% 29.94 in 10.0 mi NNW 9.2 mph - N/A   Clear
4:55 PM 80.6 °F - 28.4 °F 15% 29.93 in 10.0 mi North 4.6 mph - N/A   Clear
5:15 PM 82.4 °F - 26.6 °F 13% 29.93 in 10.0 mi North - - N/A   Clear
5:35 PM 80.6 °F - 26.6 °F 14% 29.92 in 10.0 mi NNW 10.4 mph - N/A   Clear
5:55 PM 80.6 °F - 28.4 °F 15% 29.92 in 10.0 mi NW 9.2 mph - N/A   Clear
6:15 PM 80.6 °F - 28.4 °F 15% 29.91 in 10.0 mi NNW 9.2 mph - N/A   Clear
6:35 PM 82.4 °F - 26.6 °F 13% 29.91 in 10.0 mi NNW 8.1 mph - N/A   Clear
6:55 PM 82.4 °F - 26.6 °F 13% 29.90 in 10.0 mi NNW 10.4 mph - N/A   Clear
7:15 PM 80.6 °F - 24.8 °F 13% 29.90 in 10.0 mi NNW 10.4 mph - N/A   Clear
7:35 PM 80.6 °F - 26.6 °F 14% 29.90 in 10.0 mi NNW 11.5 mph - N/A   Clear
7:55 PM 80.6 °F - 30.2 °F 16% 29.90 in 10.0 mi NNW 11.5 mph - N/A   Clear
8:15 PM 78.8 °F - 32.0 °F 18% 29.91 in 10.0 mi NNW 11.5 mph - N/A   Clear
8:35 PM 77.0 °F - 32.0 °F 19% 29.91 in 10.0 mi NW 10.4 mph - N/A   Clear
8:55 PM 77.0 °F - 32.0 °F 19% 29.91 in 10.0 mi NW 10.4 mph - N/A   Clear
9:15 PM 75.2 °F - 33.8 °F 22% 29.91 in 10.0 mi NNW 9.2 mph - N/A   Clear
9:35 PM 73.4 °F - 35.6 °F 25% 29.91 in 10.0 mi NW 8.1 mph - N/A   Clear
9:55 PM 73.4 °F - 33.8 °F 23% 29.91 in 10.0 mi NW 6.9 mph - N/A   Clear
10:15 PM 71.6 °F - 33.8 °F 25% 29.92 in 10.0 mi NNW 5.8 mph - N/A   Clear
10:35 PM 71.6 °F - 32.0 °F 23% 29.93 in 10.0 mi NW 4.6 mph - N/A   Clear
10:55 PM 68.0 °F - 33.8 °F 28% 29.93 in 10.0 mi Calm Calm - N/A   Clear
11:15 PM 64.4 °F - 35.6 °F 34% 29.93 in 10.0 mi Calm Calm - N/A   Clear
11:35 PM 62.6 °F - 37.4 °F 39% 29.93 in 10.0 mi Calm Calm - N/A   Clear
11:55 PM 62.6 °F - 37.4 °F 39% 29.93 in 10.0 mi Calm Calm - N/A   Clear